Regional Weather Roundup
Issued by NWS Sterling, VA

Home | Current Version | Previous Version | Text Only | Print | Product List | Glossary On
Versions: 1 2 3 4 5 6 7 8 9 10 11 12 13 14 15 16 17 18 19 20 21 22 23 24 25 26 27 28 29 30 31 32 33 34 35 36 37 38 39 40 41 42 43 44 45 46 47 48 49 50
000
ASUS41 KLWX 311510
RWRLWX

REGIONAL WEATHER ROUNDUP
NATIONAL WEATHER SERVICE BALTIMORE MD/WASHINGTON DC
1100 AM EDT TUE MAY 31 2016

Note: "FAIR" indicates few or no clouds below 12,000 feet
with no significant weather and/or obstructions to visibility.
 TC=TEMPERATURE CELSIUS

 * =Non NWS site. Station does not report precipitation (e.g. rain,
    snow, etc.), thunder, or fog.

DCZ001-MDZ009-015-VAZ040>042-051-053>054-311600-
WASHINGTON METRO

CITY           SKY/WX    TMP DP  RH WIND       PRES   REMARKS
WASHINGTON NAT PTSUNNY   79  68  69 CALM      29.99S
DULLES         FAIR      80  66  62 VRB7      30.00R
ANDREWS AFB    PTSUNNY   75  70  83 NE7       29.99S
FT BELVOIR     PTSUNNY   77  68  73 CALM      29.99S
QUANTICO       FAIR      76  69  79 SE3       30.00S
LEESBURG*      FAIR      81  70  69 NE7       30.01S
MANASSAS*      PTSUNNY   81  66  61 N7        29.99F

$$

MDZ006>007-011-014-311600-
BALTIMORE METRO

CITY           SKY/WX    TMP DP  RH WIND       PRES   REMARKS
BWI AIRPORT    MOSUNNY   79  67  66 N5        29.98S
MD SCIENCE CTR   N/A     79  68  69 MISG      29.98S
MARTIN STATE   MOSUNNY   81  73  78 N3        29.99S
ANNAPOLIS      CLOUDY    75  69  81 NW5       29.98S
FORT MEADE*    CLOUDY    75  66  73 CALM      30.01S

$$

MDZ012-015-019>023-311600-
MARYLAND EASTERN SHORE

CITY           SKY/WX    TMP DP  RH WIND       PRES   REMARKS
OCEAN CITY     CLOUDY    69  66  90 E6        29.99R
SALISBURY      PTSUNNY   76  68  76 CALM      29.98S
EASTON*        MOSUNNY   77  72  83 CALM      30.01F

$$

MDZ017>025-311600-
SOUTHERN MARYLAND

CITY           SKY/WX    TMP DP  RH WIND       PRES   REMARKS
PATUXENT RIVER PTSUNNY   76  67  73 CALM      29.98F
ST INIGOES     CLOUDY    75  69  81 SW6       29.99R
LEONARDTOWN*   CLOUDY    73  66  78 CALM      30.00F

$$

MDZ003>005-311600-
NORTH CENTRAL MARYLAND

CITY           SKY/WX    TMP DP  RH WIND       PRES   REMARKS
FREDERICK*     SUNNY     81  66  61 NE6       30.03R
HAGERSTOWN APT SUNNY     78  63  59 W5        30.01S
WESTMINSTER*   SUNNY     79  73  83 NE6       30.01S

$$

MDZ501>502-311600-
WESTERN MARYLAND

CITY           SKY/WX    TMP DP  RH WIND       PRES   REMARKS
OAKLAND*       SUNNY     70  50  49 N5        30.12R
CUMBERLAND*    SUNNY     73  64  73 SE7       30.08S

$$

VAZ025>031-311600-
SHENANDOAH VALLEY

CITY           SKY/WX    TMP DP  RH WIND       PRES   REMARKS
WINCHESTER*    FAIR      79  64  61 CALM      30.02F
FRONT ROYAL*   FAIR      73  68  83 CALM      30.02F
LURAY*         FAIR      73  70  88 CALM      30.03F
NEW MARKET*    FAIR     N/A N/A N/A NE8       30.01S
STAUNTON*      FAIR      75  63  67 NE5       30.06S
WAYNESBORO*    FAIR      75  63  65 N7        30.05S

$$

WVZ021-048>050-054>055-311600-
EASTERN WEST VIRGINIA PANHANDLE

CITY           SKY/WX    TMP DP  RH WIND       PRES   REMARKS
MARTINSBURG    FAIR      79  63  57 NE7       30.01S
PETERSBURG*    FAIR      77  64  63 CALM      30.04F

$$

VAZ036>039-050-311600-
CENTRAL FOOTHILLS

CITY           SKY/WX    TMP DP  RH WIND       PRES   REMARKS
CHARLOTTESVILL FAIR      79  67  66 VRB6      30.00S
CULPEPER*      FAIR      81  68  66 NE3       30.00S
ORANGE*        FAIR      79  70  73 CALM      30.02S
GORDONSVILLE*  FAIR      79  68  70 NE7       30.00S
WARRENTON*     FAIR      82  63  53 NE6       30.00R

$$

VAZ055>057-311600-
NORTH AND CENTRAL PIEDMONT

CITY           SKY/WX    TMP DP  RH WIND       PRES   REMARKS
FREDERICKSBRG* PTSUNNY   77  72  83 S5        29.99S
STAFFORD*      PTSUNNY   76  66  71 NE5       30.04R

$$

NCZ024-NYZ072-PAZ021-071-VAZ022-071-311600-
OTHER REGIONAL OBSERVATIONS

CITY           SKY/WX    TMP DP  RH WIND       PRES   REMARKS
NEW YORK CITY  MOSUNNY   78  61  55 VRB5      30.01R
PHILADELPHIA   MOSUNNY   82  59  45 NE14      29.97S
PITTSBURGH     CLOUDY    79  56  45 SW5       30.03S
ROANOKE        FAIR      77  65  66 VRB7      30.05S
RICHMOND       PTSUNNY   75  67  76 SE3       29.99S
RALEIGH        PTSUNNY   76  69  79 VRB7      29.99S

$$

ANZ530>537-311600-
MARINE OBSERVATIONS

STATION/POSITION TIME  TEMP    WIND        PRES
                       AIR SEA DIR/SP/G
                 (UTC) (F)     (DEG/KT/KT) (MB)
THOMAS PT LIGHT  1500   72 69   CALM  /  1 1016.9R
BALT KEY BRIDGE  1400   75      CALM  /  1 1015.2F
COVE POINT       1400   69     190/  2/  3 1016.1S
LEWISETTA        1400   70 72  110/  2/  3 1015.3R
SOLOMONS ISLAND  1400   71 68  110/  3/  3   N/A
PINEY POINT      1400          230/  1/  2   N/A

$$




USA.gov is the U.S. government's official web portal to all federal, state and local government web resources and services.